Location: St. Louis
(38.6270°N, 90.1994°W)
Time: 05:51:53
(UTC-06:00)

A-11 Canister half - Pass Details

Date: 03 December 2021
Orbit: 1524 x 1684 km, 47.3° (Epoch: 22 January)

Event Time Altitude Azimuth Distance (km) Brightness Sun altitude
Exits shadow 01:38:53 16° 61° (ENE) 3,434 11.0 -61.6°
Drops below altitude 10° 01:40:28 10° 60° (ENE) 3,913 11.4 -61.3°
Sets 01:43:35 0° 60° (ENE) 4,886 12.1 -60.8°
